Weather observations for the past three days for
Orange Municipal Airport
Imperial (Metric)
Date Time (edt) Wind (mph) Vis. (mi.) Weather Sky Cond. Temperature (ºF) Relative Humidity Wind Chill (°F) Heat Index (°F) Pressure Precipitation (in)
Air Dwpt 6 hour altimeter (in) sea level (mb) 1 hr 3 hr 6 hr
Max. Min.
13 02:52 Calm 10.00 Fair CLR 53.1 51.1 93% 30 1015.9
13 01:52 Calm 10.00 Fair CLR 54 51.1 71.1 54 90% 30 1015.9
13 00:52 Calm 10.00 Fair CLR 55.9 52 87% 30 1015.9
12 23:52 Calm 10.00 Fair CLR 62.1 51.1 67% 30.02 1016.3
12 22:52 Calm 10.00 Partly Cloudy SCT060 64.9 53.1 66% 30.02 1016.3
12 21:52 NW 3 10.00 Overcast OVC060 66.9 53.1 61% 30.01 1016.0
12 20:52 W 7 10.00 Partly Cloudy SCT060 69.1 53.1 57% 29.98 1015.1
12 19:52 W 8 10.00 Mostly Cloudy BKN050 71.1 54 77 71.1 55% 29.97 1014.6
12 18:52 W 5 10.00 Fair CLR 73.9 54 50% 29.96 1014.3
12 17:52 Vrbl 5 10.00 Fair CLR 75.9 54 47% 78 29.95 1014.3
12 16:52 W 7 10.00 A Few Clouds FEW090 75.9 53.1 45% 78 29.96 1014.5
12 15:52 W 7 10.00 Overcast FEW045 OVC090 75 54 48% 78 29.97 1014.7
12 14:52 W 8 10.00 Overcast FEW050 OVC090 75 52 45% 78 29.98 1015.0
12 13:52 Calm 10.00 Overcast FEW050 OVC085 77 51.1 77 63 40% 78 29.99 1015.4
12 12:52 W 7 10.00 Overcast OVC080 73.4 0 0% 30.01 1015.9
12 11:52 Vrbl 3 10.00 Mostly Cloudy BKN075 73.9 52 46% 30.01 1015.9
12 10:52 NW 8 10.00 NULL NULL 72 54 53% 30.01 1016.2
12 09:52 N 10 10.00 NULL NULL 70 55 59% 30.02 1016.4
12 07:52 NW 5 10.00 NULL NULL 63 57.9 63 54 84% 30.02 1016.6
12 06:52 Calm 10.00 NULL NULL 57 57 100% 30.02 1016.5
12 05:52 Calm 10.00 NULL NULL 54 54 100% 30.01 1016.4
12 04:52 Calm 10.00 NULL NULL 54 54 100% 30 1016.0
12 03:52 Calm 10.00 NULL NULL 55.9 55.9 100% 30 1015.7
12 02:52 Calm 10.00 NULL NULL 55.9 55.9 100% 30 1015.9
12 01:52 Calm 10.00 NULL NULL 55.9 55.9 66.9 55.9 100% 30 1015.8
12 00:52 Calm 10.00 NULL NULL 57.9 57.9 100% 30 1015.9
11 23:52 Calm 10.00 NULL NULL 60.1 59 96% 30 1015.9
11 22:52 Calm 10.00 NULL NULL 62.1 59 90% 29.99 1015.5
11 21:52 Calm 10.00 NULL NULL 62.1 60.1 93% 29.98 1015.1
11 20:52 Calm 10.00 NULL NULL 63 60.1 90% 29.96 1014.4
11 19:52 Calm 10.00 NULL NULL 66.9 59 70 66.9 76% 29.95 1014.2
11 18:52 NW 5 10.00 NULL NULL 69.1 57.9 68% 29.94 1013.8
11 17:52 Calm 10.00 NULL NULL 68 57 68% 29.93 1013.7
11 16:52 N 3 10.00 NULL NULL 68 57 68% 29.93 1013.7
11 15:52 N 5 10.00 NULL NULL 66.9 57 71% 29.93 1013.5
11 14:52 S 6 10.00 NULL NULL 68 55.9 65% 29.93 1013.5
11 13:52 S 7 10.00 NULL NULL 70 55 71.1 60.1 59% 29.92 1013.3
11 12:52 Calm 10.00 NULL NULL 70 54 57% 29.92 1013.1
11 11:52 Vrbl 3 10.00 NULL NULL 68 54 61% 29.92 1013.2
11 10:52 W 6 10.00 NULL NULL 64.9 54 68% 29.92 1013.3
11 09:52 NW 8 10.00 NULL NULL 63 53.1 70% 29.93 1013.5
11 08:52 NW 7 10.00 NULL NULL 61 53.1 75% 29.93 1013.4
11 07:52 NW 8 10.00 NULL NULL 60.1 54 60.1 50 80% 29.9 1012.4
11 06:52 E 3 10.00 NULL NULL 55 53.1 93% 29.88 1011.9
11 05:52 N 3 10.00 NULL NULL 50 50 100% 29.87 1011.6
11 04:52 Calm 10.00 NULL NULL 51.1 51.1 100% 29.85 1010.9
11 03:52 Calm 10.00 NULL NULL 54 53.1 97% 29.83 1010.0
11 02:52 Calm 10.00 NULL NULL 57 53.1 87% 29.82 1009.8
11 01:52 NE 3 10.00 NULL NULL 55.9 54 63 52 93% 29.82 1009.7
11 00:52 Calm 10.00 NULL NULL 54 53.1 97% 29.81 1009.5
10 23:52 Calm 10.00 NULL NULL 53.1 52 96% 29.8 1009.2
10 22:52 Calm 10.00 NULL NULL 55.9 53.1 90% 29.77 1008.2
10 21:52 W 3 10.00 NULL NULL 59 53.1 81% 29.75 1007.3
10 20:52 W 7 10.00 NULL NULL 61 53.1 75% 29.73 1006.5
10 19:52 W 7 10.00 NULL NULL 63 53.1 73 63 70% 29.71 1006.1
10 18:52 NW 12 G 20 10.00 NULL NULL 64 53.1 68% 29.7 1005.7
10 17:52 NW 12 G 22 10.00 NULL NULL 68 54 61% 29.68 1005.2
10 16:52 W 13 G 24 10.00 NULL NULL 66.9 54 63% 29.67 1004.8
10 15:52 W 9 10.00 NULL NULL 69.1 54 59% 29.63 1003.5
10 14:52 W 13 G 18 10.00 NULL NULL 72 54 53% 29.62 1003.0
10 13:52 SW 14 G 22 10.00 NULL NULL 70 53.1 72 60.1 55% 29.61 1002.5
10 12:52 W 12 G 22 10.00 NULL NULL 70 54 57% 29.61 1002.5
10 11:52 W 12 G 22 10.00 NULL NULL 68 53.1 59% 29.6 1002.4
10 10:52 NW 9 10.00 NULL NULL 68 54 61% 29.6 1002.3
10 09:52 Vrbl 7 10.00 NULL NULL 64.9 54 68% 29.6 1002.1
10 08:52 Calm 10.00 NULL NULL 63 52 68% 29.6 1002.3
10 07:52 Calm 10.00 NULL NULL 60.1 51.1 60.1 48.9 72% 29.59 1002.1
10 06:52 Calm 10.00 NULL NULL 57 52 83% 29.59 1001.9
10 05:52 Calm 10.00 NULL NULL 51.1 50 96% 29.58 1001.6
10 04:52 Calm 10.00 NULL NULL 48.9 48.9 100% 29.57 1001.2
Date Time (edt) Wind (mph) Vis. (mi.) Weather Sky Cond. Air Dwpt Max. Min. Relative Humidity Wind Chill (°F) Heat Index (°F) altimeter (in) sea level (mb) 1 hr 3 hr 6 hr
6 hour
Temperature (ºF) Pressure Precipitation (in)